• In France
  • List of Countries
  • For 7 days
  • Water Temperature
  • Satellite Maps
  • Weather Map
  • Weather Widgets
  • user-avatar
    Login

    Hourly Weather Swansea

    Today, 18 January, Thursday

    Time Temperature Precipitation Wind Pressure Humidity
    00:00 +9°C° 1 mm 16 mps 745 mmHg 87%
    01:00 +8°C° 0.2 mm 15 mps 745 mmHg 85%
    02:00 +8°C° 0.2 mm 15 mps 745 mmHg 83%
    03:00 +6°C° 0.2 mm 15 mps 745 mmHg 81%
    04:00 +5°C° 0.1 mm 14 mps 746 mmHg 81%
    05:00 +5°C° 0.1 mm 13 mps 747 mmHg 80%
    06:00 +4°C° 0.1 mm 12 mps 748 mmHg 80%
    07:00 +4°C° 0.1 mm 11 mps 748 mmHg 80%
    08:00 +4°C° 0.1 mm 11 mps 749 mmHg 80%
    09:00 +3°C° 0.1 mm 10 mps 749 mmHg 79%
    10:00 +4°C° 0.2 mm 11 mps 750 mmHg 77%
    11:00 +4°C° 0.2 mm 11 mps 750 mmHg 74%
    12:00 +4°C° 0.2 mm 11 mps 751 mmHg 72%
    13:00 +4°C° 0.2 mm 11 mps 751 mmHg 72%
    14:00 +3°C° 0.2 mm 11 mps 751 mmHg 72%
    15:00 +3°C° 0.2 mm 10 mps 752 mmHg 72%
    16:00 +2°C° 0.1 mm 10 mps 752 mmHg 74%
    17:00 +2°C° 0.1 mm 9 mps 753 mmHg 75%
    18:00 +1°C° 0.1 mm 9 mps 753 mmHg 76%
    19:00 +1°C° 0.2 mm 8 mps 754 mmHg 77%
    20:00 +1°C° 0.2 mm 8 mps 754 mmHg 77%
    21:00 +1°C° 0.2 mm 8 mps 755 mmHg 78%
    22:00 0°C° 0.1 mm 8 mps 755 mmHg 78%
    23:00 0°C° 0.1 mm 7 mps 755 mmHg 79%

    Tomorrow, 19 January, Friday

    Time Temperature Precipitation Wind Pressure Humidity
    00:00 0°C° 0.1 mm 7 mps 755 mmHg 80%
    01:00 0°C° 0.1 mm 7 mps 755 mmHg 80%
    02:00 +1°C° 0.1 mm 6 mps 755 mmHg 80%
    03:00 +1°C° 0.1 mm 6 mps 755 mmHg 80%
    04:00 +1°C° 0.1 mm 6 mps 755 mmHg 80%
    05:00 0°C° 0.1 mm 7 mps 755 mmHg 80%
    06:00 0°C° 0.1 mm 7 mps 755 mmHg 81%
    07:00 0°C° 0.1 mm 7 mps 755 mmHg 80%
    08:00 0°C° 0.1 mm 7 mps 755 mmHg 79%
    09:00 0°C° 0.1 mm 8 mps 755 mmHg 79%
    10:00 +1°C° 0.2 mm 9 mps 755 mmHg 77%
    11:00 +1°C° 0.2 mm 9 mps 755 mmHg 76%
    12:00 +2°C° 0.2 mm 10 mps 755 mmHg 74%
    13:00 +2°C° 0.2 mm 10 mps 755 mmHg 74%
    14:00 +1°C° 0.2 mm 10 mps 755 mmHg 73%
    15:00 +1°C° 0.2 mm 9 mps 755 mmHg 73%
    16:00 +1°C° 0.1 mm 9 mps 755 mmHg 74%
    17:00 0°C° 0.1 mm 9 mps 756 mmHg 76%
    18:00 0°C° 0.1 mm 8 mps 756 mmHg 77%
    19:00 0°C° 0.1 mm 8 mps 756 mmHg 77%
    20:00 0°C° 0.1 mm 8 mps 756 mmHg 78%
    21:00 0°C° 0.1 mm 7 mps 756 mmHg 78%
    22:00 0°C° 0.1 mm 7 mps 756 mmHg 80%
    23:00 +1°C° 0.1 mm 6 mps 756 mmHg 81%

    Day after tomorrow, 20 January, Saturday

    Time Temperature Precipitation Wind Pressure Humidity
    00:00 +1°C° 0.1 mm 5 mps 756 mmHg 82%
    01:00 +1°C° 0.1 mm 5 mps 756 mmHg 83%
    02:00 +1°C° 0.1 mm 4 mps 755 mmHg 85%
    03:00 +1°C° 0.1 mm 4 mps 755 mmHg 86%
    04:00 +2°C° 0 mm 3 mps 755 mmHg 87%
    05:00 +3°C° 0 mm 2 mps 755 mmHg 87%
    06:00 +3°C° 0 mm 2 mps 755 mmHg 88%
    07:00 +4°C° 0 mm 1 mps 755 mmHg 88%
    08:00 +4°C° 0 mm 1 mps 755 mmHg 87%
    09:00 +5°C° 0 mm 1 mps 755 mmHg 87%
    10:00 +6°C° 0 mm 1 mps 755 mmHg 85%
    11:00 +6°C° 0 mm 1 mps 755 mmHg 83%
    12:00 +7°C° 0 mm 1 mps 756 mmHg 81%
    13:00 +7°C° 0 mm 1 mps 756 mmHg 82%
    14:00 +7°C° 0 mm 1 mps 756 mmHg 83%
    15:00 +7°C° 0 mm 1 mps 756 mmHg 84%
    16:00 +7°C° 0.3 mm 1 mps 756 mmHg 86%
    17:00 +5°C° 0.3 mm 2 mps 756 mmHg 89%
    18:00 +5°C° 0.3 mm 2 mps 756 mmHg 91%
    19:00 +4°C° 0.6 mm 3 mps 756 mmHg 92%
    20:00 +4°C° 0.6 mm 4 mps 757 mmHg 93%
    21:00 +3°C° 0.6 mm 5 mps 757 mmHg 93%
    22:00 +5°C° 0.7 mm 5 mps 757 mmHg 94%
    23:00 +5°C° 0.7 mm 5 mps 756 mmHg 95%

    21 January, Sunday

    Time Temperature Precipitation Wind Pressure Humidity
    00:00 +6°C° 0.7 mm 5 mps 756 mmHg 96%
    01:00 +7°C° 1 mm 6 mps 756 mmHg 96%
    02:00 +7°C° 1 mm 6 mps 756 mmHg 97%
    03:00 +8°C° 1 mm 7 mps 756 mmHg 97%
    04:00 +9°C° 0.3 mm 8 mps 755 mmHg 96%
    05:00 +10°C° 0.3 mm 8 mps 755 mmHg 96%
    06:00 +10°C° 0.3 mm 9 mps 755 mmHg 95%
    07:00 +11°C° 0.3 mm 10 mps 755 mmHg 95%
    08:00 +11°C° 0.3 mm 11 mps 755 mmHg 94%
    09:00 +11°C° 0.3 mm 11 mps 755 mmHg 94%
    10:00 +11°C° 0.4 mm 11 mps 755 mmHg 94%
    11:00 +11°C° 0.4 mm 11 mps 755 mmHg 94%
    12:00 +11°C° 0.4 mm 11 mps 756 mmHg 94%
    13:00 +11°C° 0.2 mm 11 mps 756 mmHg 94%
    14:00 +11°C° 0.2 mm 10 mps 756 mmHg 94%
    15:00 +11°C° 0.2 mm 9 mps 756 mmHg 95%
    16:00 +11°C° 0.1 mm 9 mps 757 mmHg 95%
    17:00 +11°C° 0.1 mm 8 mps 757 mmHg 96%
    18:00 +11°C° 0.1 mm 8 mps 757 mmHg 96%
    19:00 +10°C° 0 mm 7 mps 758 mmHg 96%
    20:00 +10°C° 0 mm 7 mps 758 mmHg 97%
    21:00 +10°C° 0 mm 6 mps 758 mmHg 97%
    22:00 +10°C° 0.1 mm 6 mps 758 mmHg 97%
    23:00 +10°C° 0.1 mm 5 mps 758 mmHg 97%

    22 January, Monday

    Time Temperature Precipitation Wind Pressure Humidity
    00:00 +10°C° 0.1 mm 5 mps 758 mmHg 97%
    01:00 +11°C° 0.9 mm 6 mps 758 mmHg 97%
    02:00 +11°C° 0.9 mm 7 mps 758 mmHg 97%
    03:00 +11°C° 0.9 mm 8 mps 757 mmHg 97%
    04:00 +11°C° 0.3 mm 8 mps 757 mmHg 96%
    05:00 +11°C° 0.3 mm 9 mps 757 mmHg 95%
    06:00 +11°C° 0.3 mm 9 mps 757 mmHg 94%
    07:00 +11°C° 0.1 mm 10 mps 757 mmHg 94%
    08:00 +11°C° 0.1 mm 10 mps 757 mmHg 93%
    09:00 +11°C° 0.1 mm 10 mps 757 mmHg 92%
    10:00 +11°C° 0.2 mm 11 mps 756 mmHg 92%
    11:00 +11°C° 0.2 mm 11 mps 756 mmHg 91%
    12:00 +10°C° 0.2 mm 12 mps 755 mmHg 91%
    13:00 +10°C° 0.4 mm 12 mps 755 mmHg 91%
    14:00 +10°C° 0.4 mm 13 mps 755 mmHg 90%
    15:00 +12°C° 0.4 mm 13 mps 754 mmHg 90%
    16:00 +10°C° 0.1 mm 12 mps 754 mmHg 90%
    17:00 +10°C° 0.1 mm 12 mps 755 mmHg 90%
    18:00 +11°C° 0.1 mm 11 mps 755 mmHg 90%
    19:00 +9°C° 0 mm 10 mps 755 mmHg 90%
    20:00 +8°C° 0 mm 9 mps 756 mmHg 90%
    21:00 +7°C° 0 mm 8 mps 756 mmHg 90%
    22:00 +8°C° 0 mm 9 mps 756 mmHg 91%
    23:00 +8°C° 0 mm 9 mps 757 mmHg 91%

    23 January, Tuesday

    Time Temperature Precipitation Wind Pressure Humidity
    00:00 +8°C° 0 mm 10 mps 757 mmHg 92%
    01:00 +9°C° 0.1 mm 10 mps 757 mmHg 92%
    02:00 +9°C° 0.1 mm 10 mps 758 mmHg 91%
    03:00 +9°C° 0.1 mm 10 mps 758 mmHg 91%
    04:00 +9°C° 0.1 mm 10 mps 758 mmHg 91%
    05:00 +10°C° 0.1 mm 9 mps 759 mmHg 91%
    06:00 +9°C° 0.1 mm 8 mps 759 mmHg 92%
    07:00 +9°C° 0.1 mm 8 mps 760 mmHg 92%
    08:00 +9°C° 0.1 mm 8 mps 760 mmHg 93%
    09:00 +10°C° 0.1 mm 7 mps 761 mmHg 94%
    10:00 +10°C° 0.1 mm 8 mps 761 mmHg 93%
    11:00 +10°C° 0.1 mm 8 mps 761 mmHg 93%
    12:00 +11°C° 0.1 mm 8 mps 761 mmHg 92%
    13:00 +11°C° 0 mm 8 mps 760 mmHg 91%
    14:00 +11°C° 0 mm 9 mps 760 mmHg 91%
    15:00 +11°C° 0 mm 9 mps 759 mmHg 91%
    16:00 +10°C° 0 mm 9 mps 759 mmHg 90%
    17:00 +9°C° 0 mm 10 mps 759 mmHg 90%
    18:00 +9°C° 0 mm 10 mps 758 mmHg 90%
    19:00 +9°C° 0.3 mm 10 mps 758 mmHg 91%
    20:00 +11°C° 0.3 mm 10 mps 757 mmHg 92%
    21:00 +12°C° 0.3 mm 10 mps 757 mmHg 92%
    22:00 +12°C° 0.9 mm 11 mps 756 mmHg 92%
    23:00 +12°C° 0.9 mm 12 mps 756 mmHg 91%
    Show more